Date,TemperatureHighF,TemperatureAvgF,TemperatureLowF,DewpointHighF,DewpointAvgF,DewpointLowF,HumidityHigh,HumidityAvg,HumidityLow,PressureMaxIn,PressureMinIn,WindSpeedMaxMPH,WindSpeedAvgMPH,GustSpeedMaxMPH,PrecipitationSumIn
2013-1-1,60,51,42,59,47,37,95,88,77,29.64,29.37,8,3,8,0.08
2013-1-2,45,41,37,37,32,29,83,70,55,29.72,29.62,7,2,7,0.00
2013-1-3,46,41,37,33,31,29,80,68,56,29.85,29.70,7,2,7,0.00
2013-1-4,43,40,37,39,36,32,92,87,67,29.90,29.77,5,2,6,0.11
2013-1-5,57,46,38,46,40,35,90,82,64,29.78,29.62,6,1,6,0.00
2013-1-6,58,44,36,36,32,30,91,68,36,29.79,29.68,7,2,7,0.00
2013-1-7,56,45,34,45,35,27,80,69,53,29.73,29.45,8,2,8,0.00
2013-1-8,56,51,48,55,49,44,96,94,80,29.45,29.25,7,2,7,0.43
2013-1-9,64,57,51,59,55,48,97,92,83,29.45,29.27,12,3,12,1.28
2013-1-10,65,54,45,49,46,42,95,75,49,29.47,29.39,19,4,19,0.00
2013-1-11,69,59,44,65,55,40,93,86,76,29.44,29.24,10,2,10,0.00
2013-1-12,73,67,52,68,62,40,95,85,58,29.27,29.09,13,4,13,0.00
2013-1-13,53,46,39,40,32,28,65,58,43,29.56,29.26,12,5,14,0.00
2013-1-14,52,42,35,36,29,23,71,61,51,29.63,29.49,10,4,10,0.00
2013-1-15,42,38,35,36,33,24,92,82,66,29.65,29.49,9,4,9,0.00
2013-1-16,53,41,32,24,20,14,65,46,22,29.75,29.59,14,3,14,0.00
2013-1-17,65,49,34,37,31,22,71,53,31,29.88,29.70,7,2,7,0.00
2013-1-18,63,49,36,40,34,28,77,58,37,29.92,29.72,10,2,10,0.00
2013-1-19,67,51,38,49,40,32,85,67,46,29.73,29.57,12,2,12,0.00
2013-1-20,69,54,41,56,45,36,88,72,50,29.67,29.52,9,2,9,0.00
2013-1-21,72,56,44,58,48,39,89,73,51,29.65,29.55,7,2,8,0.00
2013-1-22,71,58,47,54,48,41,82,69,51,29.72,29.61,11,2,11,0.00
2013-1-23,74,61,48,60,53,43,89,76,59,29.76,29.62,12,2,12,0.00
2013-1-24,77,65,58,65,59,54,94,82,63,29.68,29.53,10,3,10,0.00
2013-1-25,78,67,60,65,61,57,92,80,62,29.58,29.45,12,3,12,0.00
2013-1-26,70,63,56,61,58,53,92,84,72,29.58,29.45,8,2,8,0.00
2013-1-27,78,68,59,66,62,57,93,83,65,29.51,29.37,17,5,17,0.00
2013-1-28,75,71,68,68,66,65,91,85,75,29.47,29.30,14,5,14,0.00
2013-1-29,83,70,56,68,57,26,89,66,31,29.30,28.94,21,6,21,0.00
2013-1-30,58,52,39,27,20,11,47,29,17,29.65,29.25,20,5,20,0.00
2013-1-31,67,49,34,27,23,20,58,39,19,29.72,29.59,14,3,14,0.00
2013-2-1,71,56,42,46,36,28,72,49,29,29.75,29.59,13,3,13,0.00
2013-2-2,74,58,45,56,46,38,80,65,47,29.69,29.58,12,2,12,0.00
2013-2-3,72,61,50,52,44,37,73,56,36,29.75,29.44,9,2,9,0.00
2013-2-4,74,64,56,60,56,50,86,75,57,29.44,29.23,12,3,12,0.00
2013-2-5,79,64,51,51,46,38,89,57,26,29.42,29.30,4,1,4,0.00
2013-2-6,76,65,59,62,57,48,87,75,59,29.41,29.26,8,2,8,0.02
2013-2-7,78,66,59,64,57,40,91,73,39,29.48,29.30,10,3,10,0.01
2013-2-8,70,59,48,47,38,32,73,48,27,29.64,29.48,11,3,11,0.00
2013-2-9,68,60,52,66,54,35,94,84,49,29.50,29.21,10,3,10,0.04
2013-2-10,69,64,58,66,45,28,94,54,25,29.44,29.18,13,3,13,0.05
2013-2-11,61,56,52,49,44,36,91,66,46,29.47,29.36,10,3,10,0.00
2013-2-12,72,59,51,55,44,24,94,64,21,29.47,29.24,16,3,16,0.01
2013-2-13,64,51,40,36,31,26,72,49,24,29.56,29.42,11,2,11,0.00
2013-2-14,69,52,36,42,35,28,77,55,34,29.55,29.41,13,2,13,0.00
2013-2-15,67,52,40,44,37,22,85,57,34,29.78,29.49,9,3,9,0.00
2013-2-16,65,50,34,32,26,20,61,42,26,29.87,29.63,12,2,12,0.00
2013-2-17,70,55,38,52,38,26,71,53,38,29.63,29.40,18,5,18,0.00
2013-2-18,80,67,59,61,48,25,83,57,22,29.48,29.27,17,5,17,0.00
2013-2-19,68,58,46,34,31,28,57,38,24,29.65,29.47,13,4,13,0.00
2013-2-20,68,60,54,64,51,27,92,75,30,29.53,29.08,13,4,13,0.02
2013-2-21,77,68,54,65,43,18,90,50,12,29.28,29.01,17,5,17,0.00
2013-2-22,67,55,48,39,34,24,68,45,31,29.43,29.28,10,3,10,0.00
2013-2-23,74,56,42,44,35,28,60,47,25,29.47,29.28,9,2,9,0.00
2013-2-24,71,58,41,58,48,33,86,69,57,29.33,29.05,11,3,11,0.00
2013-2-25,62,54,47,60,33,17,93,47,18,29.30,29.01,26,9,26,0.03
2013-2-26,67,53,40,33,28,25,59,40,24,29.38,29.26,12,4,12,0.00
2013-2-27,64,54,43,34,28,21,63,39,23,29.64,29.29,17,4,17,0.00
2013-2-28,61,50,41,30,25,20,53,39,24,29.74,29.60,10,3,10,0.00
2013-3-1,70,52,34,31,21,9,60,35,11,29.70,29.52,13,2,13,0.00
2013-3-2,65,52,41,29,26,21,53,37,25,29.83,29.67,12,3,12,0.05
2013-3-3,76,56,37,42,32,24,60,43,22,29.68,29.38,17,5,17,0.00
2013-3-4,86,66,48,53,44,39,76,50,22,29.38,29.15,13,4,13,0.00
2013-3-5,66,57,42,54,27,11,90,38,16,29.77,29.21,17,5,17,0.00
2013-3-6,66,49,34,23,18,12,47,31,18,29.84,29.63,2,0,2,0.00
2013-3-7,74,58,42,54,43,23,74,59,37,29.64,29.51,0,0,0,0.00
2013-3-8,68,64,60,64,58,52,89,83,73,29.55,29.41,0,0,0,0.02
2013-3-9,77,67,63,68,63,59,93,86,71,29.44,29.05,0,0,0,0.12
2013-3-10,67,60,58,63,48,33,96,67,33,29.39,29.08,0,0,0,0.60
2013-3-28,65,64,63,57,56,55,76,75,74,29.59,29.57,0,0,0,0.00
2013-3-29,79,73,65,60,58,57,82,60,49,29.59,29.46,0,0,0,0.00
2013-3-30,83,70,65,66,61,58,82,74,55,29.53,29.42,0,0,0,0.00
2013-9-18,79,74,73,72,68,67,82,81,78,29.39,29.35,0,0,0,0.35
2013-9-19,91,80,73,77,71,66,82,74,57,29.39,29.25,0,0,0,0.01
2013-9-20,81,76,71,74,69,62,83,79,72,29.31,29.20,0,0,0,0.62
2013-9-21,85,73,65,66,62,53,83,70,34,29.35,29.26,0,0,0,0.00
2013-9-22,88,71,58,56,51,48,73,51,29,29.34,29.21,0,0,0,0.00
2013-9-23,91,72,57,60,52,49,76,52,28,29.28,29.19,0,0,0,0.00
2013-9-24,95,78,63,62,58,53,73,52,30,29.37,29.26,0,0,0,0.00
2013-9-25,95,80,67,67,60,57,74,53,35,29.34,29.22,0,0,0,0.00
2013-9-26,92,80,68,72,66,56,81,63,43,29.34,29.24,0,0,0,0.00
2013-9-27,91,81,75,79,73,69,82,76,59,29.35,29.25,0,0,0,0.04
2013-9-28,89,81,76,76,73,70,82,78,64,29.40,29.30,0,0,0,0.00
2013-9-29,77,71,66,70,64,58,83,79,70,29.47,29.36,0,0,0,2.30
2013-9-30,89,74,61,67,60,55,83,65,39,29.39,29.24,0,0,0,0.00
2013-10-1,91,79,69,75,69,61,82,73,50,29.36,29.26,0,0,0,0.02
2013-10-2,90,81,76,74,71,68,82,72,53,29.39,29.29,0,0,0,0.00
2013-10-3,90,81,74,74,70,67,83,71,54,29.37,29.26,0,0,0,0.00
2013-10-4,91,80,73,73,70,68,83,72,51,29.36,29.26,0,0,0,0.00
2013-10-5,88,77,63,71,65,44,83,68,50,29.46,29.31,0,0,0,0.00
2013-10-6,78,65,54,52,46,38,84,53,25,29.57,29.45,0,0,0,0.14
2013-10-7,84,67,52,52,45,39,73,50,23,29.60,29.47,0,0,0,0.00
2013-10-8,84,68,53,54,49,45,76,53,32,29.52,29.41,0,0,0,0.00
2013-10-9,84,70,57,63,56,47,81,63,46,29.49,29.37,0,0,0,0.00
2013-10-10,87,74,65,68,63,59,82,70,50,29.46,29.30,0,0,0,0.00
2013-10-11,90,79,72,75,70,64,83,75,57,29.37,29.26,0,0,0,0.00
2013-10-12,91,81,76,75,72,70,82,75,55,29.44,29.33,0,0,0,0.02
2013-10-13,77,72,66,71,65,59,83,78,72,29.59,29.43,0,0,0,0.65
2013-10-14,84,76,72,74,68,63,83,76,69,29.52,29.34,0,0,0,0.01
2013-10-15,85,75,64,73,68,59,83,79,63,29.42,29.30,0,0,0,0.00
2013-10-16,64,58,54,58,53,48,84,82,76,29.49,29.37,0,0,0,0.74
2013-10-17,73,62,53,56,52,48,85,71,54,29.55,29.41,0,0,0,0.00
2013-10-18,74,65,57,66,59,51,83,80,74,29.43,29.30,0,0,0,0.01
2013-10-19,67,59,51,61,46,40,84,64,39,29.60,29.41,0,0,0,0.00
2013-10-20,74,59,46,54,47,40,83,66,46,29.52,29.35,0,0,0,0.00
2013-10-21,79,69,60,68,61,51,83,75,66,29.47,29.32,0,0,0,0.00
2013-10-22,73,64,56,55,46,38,81,57,28,29.59,29.47,0,0,0,0.00
2013-10-23,80,63,50,51,45,41,73,55,31,29.61,29.52,0,0,0,0.00
2013-10-24,79,64,51,55,49,43,76,59,38,29.65,29.55,0,0,0,0.00
2013-10-25,80,67,53,63,56,48,83,70,53,29.73,29.61,0,0,0,0.00
2013-10-26,82,72,65,67,62,59,84,74,57,29.64,29.50,0,0,0,0.00
2013-10-27,80,71,66,69,64,60,83,79,69,29.53,29.42,0,0,0,0.00
2013-10-28,83,74,68,70,66,62,83,75,60,29.50,29.39,0,0,0,0.00
2013-10-29,84,76,71,72,68,65,83,76,61,29.51,29.39,0,0,0,0.00
2013-10-30,83,77,73,75,70,66,83,80,74,29.46,29.24,0,0,0,1.15
2013-10-31,80,72,58,69,56,41,83,60,26,29.32,29.23,0,0,0,0.30
2013-11-1,82,66,51,60,48,39,81,57,24,29.49,29.26,0,0,0,0.00
2013-11-2,72,63,52,45,40,35,64,45,26,29.72,29.50,0,0,0,0.00
2013-11-3,70,58,45,52,42,37,74,56,34,29.64,29.45,0,0,0,0.00
2013-11-4,71,65,60,61,57,52,82,76,69,29.48,29.38,0,0,0,0.02
2013-11-5,78,72,66,68,64,60,82,78,68,29.44,29.32,0,0,0,0.02
2013-11-6,76,65,55,70,57,42,83,74,60,29.72,29.40,0,0,0,0.11
2013-11-7,63,54,47,42,38,34,67,55,37,29.86,29.72,0,0,0,0.00
2013-11-8,65,57,50,46,43,38,74,59,41,29.79,29.59,0,0,0,0.00
2013-11-9,70,62,55,59,53,46,83,74,64,29.61,29.53,0,0,0,0.13
2013-11-10,68,64,62,59,57,56,83,79,72,29.71,29.58,0,0,0,0.00
2013-11-11,75,64,57,58,55,52,83,72,54,29.69,29.57,0,0,0,0.00
2013-11-12,63,56,45,54,46,28,82,72,52,30.01,29.65,0,0,0,0.00
2013-11-13,56,44,36,32,28,25,67,52,36,30.03,29.80,0,0,0,0.00
2013-11-14,61,49,34,45,35,26,74,61,41,29.79,29.47,0,0,0,0.00
2013-11-15,76,63,51,59,53,46,82,71,55,29.46,29.30,0,0,0,0.00
2013-11-16,80,72,64,68,64,57,82,78,67,29.35,29.19,0,0,0,0.00
2013-11-17,85,76,68,71,67,62,82,75,58,29.38,29.22,0,0,0,0.00
2013-11-18,78,69,61,68,62,55,83,78,67,29.53,29.37,0,0,0,0.00
2013-11-19,71,64,56,61,52,45,81,66,52,29.55,29.42,0,0,0,0.00
2013-11-20,73,66,59,64,59,53,82,77,71,29.44,29.31,0,0,0,0.00
2013-11-21,79,73,70,72,67,63,83,81,78,29.48,29.36,0,0,0,0.03
2013-11-22,73,46,36,67,42,32,87,84,78,29.76,29.47,0,0,0,0.19
2013-11-23,41,39,36,37,34,32,86,84,80,29.83,29.74,0,0,0,0.00
2013-11-24,41,38,35,37,34,30,87,84,74,29.85,29.70,0,0,0,0.34
2013-11-25,42,39,35,37,35,30,86,84,80,29.72,29.46,0,0,0,0.39
2013-11-26,50,42,38,37,34,29,84,71,55,29.77,29.52,0,0,0,0.01
2013-11-27,50,41,35,30,26,21,72,56,33,29.88,29.74,0,0,0,0.00
2013-11-28,55,42,33,34,29,26,79,62,38,29.84,29.73,0,0,0,0.00
2013-11-29,62,50,35,51,42,27,85,75,67,29.89,29.74,0,0,0,0.00
2013-11-30,69,59,51,58,52,44,81,76,69,29.79,29.60,0,0,0,0.00
2013-12-1,70,62,58,61,56,53,84,80,70,29.62,29.39,0,0,0,0.00
2013-12-2,78,66,59,62,56,52,84,72,48,29.39,29.13,0,0,0,0.00
2013-12-3,82,66,55,62,51,45,84,62,30,29.16,29.05,0,0,0,0.00
2013-12-4,75,63,54,66,56,46,83,78,65,29.22,29.11,0,0,0,0.00
2013-12-5,67,49,34,60,41,28,84,76,66,29.47,29.21,0,0,0,0.00
2013-12-6,40,34,30,32,28,23,86,79,70,29.80,29.43,0,0,0,0.00
2013-12-7,34,32,28,25,24,20,83,73,67,29.82,29.66,0,0,0,0.00
2013-12-8,51,40,30,42,33,25,85,78,69,29.66,29.42,0,0,0,0.00
2013-12-9,44,41,35,39,36,30,86,84,81,29.76,29.45,0,0,0,0.00
2013-12-10,48,37,30,31,26,23,86,65,38,29.89,29.73,0,0,0,0.00
2013-12-11,60,44,31,37,31,24,77,61,34,29.93,29.72,0,0,0,0.00
2013-12-12,53,44,36,38,33,28,74,65,54,29.99,29.71,0,0,0,0.00
2013-12-13,50,48,46,46,40,34,85,74,63,29.72,29.32,0,0,0,0.00
2013-12-14,56,49,42,44,38,29,85,67,47,29.74,29.32,0,0,0,0.00
2013-12-15,58,43,34,34,29,25,73,59,38,29.81,29.70,0,0,0,0.00
2013-12-18,69,64,57,54,50,46,78,61,50,29.70,29.47,0,0,0,0.00
2013-12-19,74,64,58,62,57,51,83,78,64,29.47,29.23,0,0,0,0.00
2013-12-20,74,68,63,66,62,57,84,81,74,29.28,29.04,0,0,0,0.00
2013-12-21,70,63,47,64,51,37,85,67,32,29.27,28.96,0,0,0,0.00
2013-12-22,58,48,40,43,37,30,81,66,51,29.76,29.26,0,0,0,0.00
2013-12-23,57,43,33,30,28,24,80,57,31,29.93,29.75,0,0,0,0.00
2013-12-24,58,44,31,36,29,25,80,58,34,29.93,29.67,0,0,0,0.00
2013-12-25,59,49,39,49,42,34,85,77,66,29.78,29.63,0,0,0,0.00
2013-12-26,53,48,43,44,40,35,83,73,64,29.83,29.72,0,0,0,0.00
2013-12-27,54,49,45,47,44,40,85,82,74,29.83,29.72,0,0,0,0.26
2013-12-28,57,50,44,48,44,40,85,79,68,29.72,29.44,0,0,0,0.00
2013-12-29,62,49,36,52,42,31,85,79,65,29.65,29.39,0,0,0,0.00
2013-12-30,44,39,35,32,29,24,81,68,55,29.78,29.61,0,0,0,0.00
2013-12-31,53,43,36,34,31,29,80,65,47,29.85,29.64,0,0,0,0.00
2014-1-1,58,49,38,48,40,30,80,72,65,29.64,29.44,0,0,0,0.00
2014-1-2,52,44,34,46,30,24,84,59,39,29.86,29.51,0,0,0,0.00